Regional Weather Roundup
Issued by NWS

Home | Current Version | Previous Version | Text Only | Print | Product List | Glossary Off
Versions: 1 2 3 4 5 6 7 8 9 10 11 12 13 14 15 16 17 18 19 20 21 22 23 24 25 26 27 28 29 30 31 32 33 34 35 36 37 38 39 40 41 42 43 44 45 46 47 48 49 50

000
ASUS43 KLOT 221203
RWRIL

ILLINOIS REGIONAL WEATHER ROUNDUP
NATIONAL WEATHER SERVICE CHICAGO/ROMEOVILLE IL
600 AM CST WED FEB 22 2017

NOTE: "FAIR" INDICATES FEW OR NO CLOUDS BELOW 12,000 FEET WITH NO
SIGNIFICANT WEATHER AND/OR OBSTRUCTIONS TO VISIBILITY.

* THESE STATIONS ARE NOT UNDER NWS QUALITY CONTROL. THEY ALSO MAY NOT
  REPORT WEATHER SUCH AS PRECIPITATION OR FOG.

ILZ001-002-007-009-015-016-024-221300-
NORTHWEST ILLINOIS

CITY           SKY/WX    TMP DP  RH WIND       PRES   REMARKS
MOLINE         CLOUDY    53  51  93 SW9       29.78S FOG
6HR MIN TEMP:  46; 6HR MAX TEMP:  56;

STERLING*      LGT RAIN  51  51 100 VRB7      29.79F VSB 1/4
SAVANNA*       FOG       49  49  99 S8        29.77S VSB 1/4
$$

ILZ003-004-008-010-011-017-018-221300-
NORTH CENTRAL ILLINOIS

CITY           SKY/WX    TMP DP  RH WIND       PRES   REMARKS
ROCKFORD       FOG       50  49  96 S10       29.80F VSB 1/8
6HR MIN TEMP:  42; 6HR MAX TEMP:  52;

FREEPORT*      FOG       49  49  99 SW13      29.79S VSB 1/2
ROCHELLE*      DRZL/FOG  51  51 100 S10       29.81S VSB 1/4
DE KALB*       DRZL/FOG  50  50  99 S9        29.82S VSB 1/4
PERU*          FOG       54  54  99 SW9       29.83S VSB 1/2
$$

ILZ005-006-012>014-019>023-221300-
NORTHEAST ILLINOIS

CITY           SKY/WX    TMP DP  RH WIND       PRES   REMARKS
CHICAGO-OHARE  FOG       55  53  93 SW9       29.81F VSB 1/2
6HR MIN TEMP:  50; 6HR MAX TEMP:  56;

CHICAGO-MIDWAY FOG       55  52  89 SW9       29.82F VSB 1
6HR MIN TEMP:  52; 6HR MAX TEMP:  56;

AURORA         FOG       53  53 100 S8        29.82F VSB 1/4
6HR MIN TEMP:  42; 6HR MAX TEMP:  53;

LANSING*       CLOUDY    51  51 100 S6        29.85F FOG
JOLIET*        FOG       52  52 100 S7        29.83F VSB<1/4
WAUKEGAN       FOG       52  52 100 SW13      29.78F VSB 1
6HR MIN TEMP:  42; 6HR MAX TEMP:  52;

DUPAGE AIRPORT FOG       53  51  93 SW13      29.81S VSB 1/4
6HR MIN TEMP:  44; 6HR MAX TEMP:  53;

KANKAKEE*      FOG       46  46  97 CALM      29.86F VSB 1/2
WHEELING       CLOUDY    53  53 100 SW9       29.82S FOG
6HR MIN TEMP:  46; 6HR MAX TEMP:  53;

MORRIS*        FOG       50  50  99 CALM      29.82F VSB 1/4
ROMEOVILLE*    DRZL/FOG  52  52 100 SW8       29.82F VSB 1/4
NORTHERLY ISL    N/A     55  52  89 S7          N/A
$$

LMZ740>746-221300-
SOUTHERN LAKE MICHIGAN

STATION/POSITION SKY/WX   TEMP    WIND        PRES    VSBY  WAVE
                          AIR SEA DIR/SP/G                  HT/PER
                          (F)     (DEG/KT/KT) (MB)    (MI)  (FT/S)
HARRISON CRIB              55     200/ 15/ 17   N/A
BURNHAM HARBOR             54     210/  9/ 10   N/A
CALUMET HARBOR             54     200/  8/ 11 1009.9F
BURNS HARBOR               54     180/ 10/ 14 1011.2S
MICHIGAN CITY              53     170/  7/  9   N/A
$$

ILZ025>027-034>036-040-047-049-050-058-095>099-221300-
WEST-CENTRAL ILLINOIS

CITY           SKY/WX    TMP DP  RH WIND       PRES   REMARKS
QUINCY         FOG       53  53 100 S13       29.82F VSB 1/4
GALESBURG*     DRZL/FOG  50  50 100 S6        29.81F VSB 1/4
MACOMB*        FOG       51  51 100 S8        29.84F VSB 1/4
JACKSONVILLE*  FOG       51  51 100 S5        29.85F VSB 1/4
PITTSFIELD*    FOG       55  55 100 SW6       29.86S VSB 1/4
$$

ILZ028>032-037-038-041>044-048-051>054-059>061-221300-
CENTRAL ILLINOIS

CITY           SKY/WX    TMP DP  RH WIND       PRES   REMARKS
PONTIAC        FOG       48  47  98 S5        29.85F VSB 1/4
BLOOMINGTON    FOG       46  46 100 S8        29.86F VSB 1/4
DECATUR        FOG       43  42  97 S3        29.87S VSB 1/4
PEORIA         FOG       53  53 100 S8        29.84F VSB 1/4
6HR MIN TEMP:  53; 6HR MAX TEMP:  56;

LACON*         FOG       54  54 100 SW7       29.82F VSB 1/2
LINCOLN*       FOG       45  45 100 CALM      29.86F VSB<1/4
SPRINGFIELD    FOG       46  45  96 SW5       29.86F VSB 1/4
6HR MIN TEMP:  46; 6HR MAX TEMP:  55;

TAYLORVILLE    FOG       45  45 100 S7        29.87S VSB 1/4
6HR MIN TEMP:  44; 6HR MAX TEMP:  51;

$$

ILZ033-039-045-046-055>057-062-063-221300-
EAST-CENTRAL ILLINOIS

CITY           SKY/WX    TMP DP  RH WIND       PRES   REMARKS
CHAMPAIGN      FOG       45  44  97 CALM      29.88S VSB 1/4
RANTOUL*       FOG       46  45  99 S3        29.87F VSB<1/4
MATTOON        FOG       49  49 100 S7        29.88R VSB 1/4
PARIS*         FOG       47  47 100 CALM      29.90S VSB 1/4
$$

ILZ079-100>102-221300-
SOUTHWEST ILLINOIS

CITY           SKY/WX    TMP DP  RH WIND       PRES   REMARKS
ALTON          FOG       44  44 100 CALM      29.88S VSB<1/4
BELLEVILLE     FOG       45  45 100 CALM      29.87S VSB 1/4
CAHOKIA*       FOG       43  43 100 CALM      29.88S VSB 1/4
SPARTA*        PTCLDY    50  49  95 S3        29.90S FOG
$$

ILZ064>066-069>071-074>076-080>082-084>086-088>090-092>094-221300-
SOUTH-CENTRAL ILLINOIS

CITY           SKY/WX    TMP DP  RH WIND       PRES   REMARKS
CARBONDALE     MOCLDY    51  51 100 CALM      29.89R FOG
6HR MIN TEMP:  50; 6HR MAX TEMP:  54;

CAIRO*         CLOUDY    56  55  99 CALM      29.89F FOG
EFFINGHAM*     FOG       46  46 100 CALM      29.90F VSB 1/4
MARION         FOG       52  52 100 CALM      29.90S VSB 1/2
MT. VERNON     FOG       45  45 100 CALM      29.89S VSB 1/2
CENTRALIA*     FOG       48  48 100 CALM      29.88S VSB 1/4
SALEM*         FOG       50  49  95 CALM      29.89R VSB<1/4
METROPOLIS*    CLOUDY    56  56  98 CALM      29.91R FOG
$$

ILZ067-068-072-073-078-083-087-091-221300-
SOUTHEAST ILLINOIS

CITY           SKY/WX    TMP DP  RH WIND       PRES   REMARKS
LAWRENCEVILLE  FOG       49  49 100 S5        29.90R VSB 1/4
FLORA*         FOG       48  47  97 CALM      29.89S VSB<1/4
FAIRFIELD*     FOG       47  47 100 CALM      29.88S VSB 1/4
HARRISBURG*    FOG       50  50 100 CALM      29.90S VSB 1
ROBINSON*      FOG       47  47 100 CALM      29.90S VSB 1/4
CARMI*         FOG       49  49 100 CALM      29.89S VSB 1/4
$$

ABBREVIATIONS USED IN REMARKS
   TC - TEMPERATURE IN CELSIUS
  WCI - WIND CHILL INDEX
   HX - HEAT INDEX
  VSB - VISIBILITY
$$





USA.gov is the U.S. government's official web portal to all federal, state and local government web resources and services.